Tracking 18951 objects as of 21-Jan-2018
HD Live streaming from Space Station
objects crossing your sky now

FENGYUN 1C DEB

Track FENGYUN 1C DEB now!
10-day predictions


NORAD ID: 32337
Int'l Code: 1999-025CYE
Perigee: 842.5 km
Apogee: 1,335.7 km
Inclination: 99.3 °
Period: 106.9 minutes
Semi major axis: 7460 km
RCS: 0.0137 m2 (small)
Launch date: May 10, 1999
Source: People's Republic of China (PRC)
Launch site: Taiyaun Space Center, China (TSC)

Note: This is SATELLITE DEBRIS
aabbcc
Your satellite tracking list
Your tracking list is empty




NASA's NSSDC Master Catalog

Two Line Element Set (TLE):
1 32337U 99025CYE 18021.05676562  .00000676  00000-0  84113-3 0  9991
2 32337  99.2969 115.9124 0330588 204.4624 154.0512 13.47371920514304
Source of the keplerian elements: AFSPC